Year,Month,Day,Hour,Minute,Value (Times are PST for temperature in C)
2014,08,18,00,00,21.10
2014,08,18,00,01,21.10
2014,08,18,00,02,21.10
2014,08,18,00,03,21.10
2014,08,18,00,04,21.10
2014,08,18,00,05,21.10
2014,08,18,00,06,21.10
2014,08,18,00,07,21.10
2014,08,18,00,08,21.10
2014,08,18,00,09,21.00
2014,08,18,00,10,21.00
2014,08,18,00,11,20.90
2014,08,18,00,12,20.90
2014,08,18,00,13,20.90
2014,08,18,00,14,20.90
2014,08,18,00,15,20.90
2014,08,18,00,16,20.90
2014,08,18,00,17,20.80
2014,08,18,00,18,20.80
2014,08,18,00,19,20.80
2014,08,18,00,20,20.80
2014,08,18,00,21,20.70
2014,08,18,00,22,20.70
2014,08,18,00,23,20.70
2014,08,18,00,24,20.70
2014,08,18,00,25,20.70
2014,08,18,00,26,20.60
2014,08,18,00,27,20.60
2014,08,18,00,28,20.60
2014,08,18,00,29,20.60
2014,08,18,00,30,20.60
2014,08,18,00,31,20.50
2014,08,18,00,32,20.50
2014,08,18,00,33,20.50
2014,08,18,00,34,20.40
2014,08,18,00,35,20.40
2014,08,18,00,36,20.40
2014,08,18,00,37,20.40
2014,08,18,00,38,20.40
2014,08,18,00,39,20.30
2014,08,18,00,40,20.30
2014,08,18,00,41,20.30
2014,08,18,00,42,20.30
2014,08,18,00,43,20.20
2014,08,18,00,44,20.20
2014,08,18,00,45,20.20
2014,08,18,00,46,20.20
2014,08,18,00,47,20.20
2014,08,18,00,48,20.20
2014,08,18,00,49,20.20
2014,08,18,00,50,20.10
2014,08,18,00,51,20.10
2014,08,18,00,52,20.10
2014,08,18,00,53,20.10
2014,08,18,00,54,20.10
2014,08,18,00,55,20.10
2014,08,18,00,56,20.10
2014,08,18,00,57,20.00
2014,08,18,00,58,20.00
2014,08,18,00,59,20.00
2014,08,18,01,00,20.00
2014,08,18,01,01,19.90
2014,08,18,01,02,19.90
2014,08,18,01,03,19.90
2014,08,18,01,04,19.90
2014,08,18,01,05,19.90
2014,08,18,01,06,19.90
2014,08,18,01,07,19.90
2014,08,18,01,08,19.90
2014,08,18,01,09,19.80
2014,08,18,01,10,19.80
2014,08,18,01,11,19.80
2014,08,18,01,12,19.80
2014,08,18,01,13,19.80
2014,08,18,01,14,19.80
2014,08,18,01,15,19.80
2014,08,18,01,16,19.80
2014,08,18,01,17,19.70
2014,08,18,01,18,19.70
2014,08,18,01,19,19.70
2014,08,18,01,20,19.70
2014,08,18,01,21,19.70
2014,08,18,01,22,19.70
2014,08,18,01,23,19.70
2014,08,18,01,24,19.70
2014,08,18,01,25,19.60
2014,08,18,01,26,19.60
2014,08,18,01,27,19.60
2014,08,18,01,28,19.60
2014,08,18,01,29,19.60
2014,08,18,01,30,19.60
2014,08,18,01,31,19.60
2014,08,18,01,32,19.50
2014,08,18,01,33,19.50
2014,08,18,01,34,19.50
2014,08,18,01,35,19.40
2014,08,18,01,36,19.40
2014,08,18,01,37,19.40
2014,08,18,01,38,19.40
2014,08,18,01,39,19.40
2014,08,18,01,40,19.30
2014,08,18,01,41,19.30
2014,08,18,01,42,19.30
2014,08,18,01,43,19.30
2014,08,18,01,44,19.30
2014,08,18,01,45,19.30
2014,08,18,01,46,19.30
2014,08,18,01,47,19.20
2014,08,18,01,48,19.20
2014,08,18,01,49,19.20
2014,08,18,01,50,19.20
2014,08,18,01,51,19.20
2014,08,18,01,52,19.10
2014,08,18,01,53,19.10
2014,08,18,01,54,19.10
2014,08,18,01,55,19.10
2014,08,18,01,56,19.10
2014,08,18,01,57,19.10
2014,08,18,01,58,19.00
2014,08,18,01,59,19.00
2014,08,18,02,00,19.00
2014,08,18,02,01,19.00
2014,08,18,02,02,19.00
2014,08,18,02,03,18.90
2014,08,18,02,04,18.90
2014,08,18,02,05,18.90
2014,08,18,02,06,18.90
2014,08,18,02,07,18.90
2014,08,18,02,08,18.90
2014,08,18,02,09,18.90
2014,08,18,02,10,18.90
2014,08,18,02,11,18.90
2014,08,18,02,12,18.90
2014,08,18,02,13,18.90
2014,08,18,02,14,18.90
2014,08,18,02,15,18.90
2014,08,18,02,16,18.90
2014,08,18,02,17,18.90
2014,08,18,02,18,18.90
2014,08,18,02,19,18.90
2014,08,18,02,20,18.90
2014,08,18,02,21,18.90
2014,08,18,02,22,18.90
2014,08,18,02,23,18.80
2014,08,18,02,24,18.80
2014,08,18,02,25,18.80
2014,08,18,02,26,18.80
2014,08,18,02,27,18.80
2014,08,18,02,28,18.80
2014,08,18,02,29,18.80
2014,08,18,02,30,18.80
2014,08,18,02,31,18.80
2014,08,18,02,32,18.80
2014,08,18,02,33,18.80
2014,08,18,02,34,18.80
2014,08,18,02,35,18.80
2014,08,18,02,36,18.70
2014,08,18,02,37,18.70
2014,08,18,02,38,18.70
2014,08,18,02,39,18.70
2014,08,18,02,40,18.70
2014,08,18,02,41,18.70
2014,08,18,02,42,18.70
2014,08,18,02,43,18.70
2014,08,18,02,44,18.70
2014,08,18,02,45,18.60
2014,08,18,02,46,18.60
2014,08,18,02,47,18.60
2014,08,18,02,48,18.60
2014,08,18,02,49,18.60
2014,08,18,02,50,18.60
2014,08,18,02,51,18.50
2014,08,18,02,52,18.50
2014,08,18,02,53,18.50
2014,08,18,02,54,18.40
2014,08,18,02,55,18.40
2014,08,18,02,56,18.40
2014,08,18,02,57,18.40
2014,08,18,02,58,18.40
2014,08,18,02,59,18.40
2014,08,18,03,00,18.40
2014,08,18,03,01,18.30
2014,08,18,03,02,18.30
2014,08,18,03,03,18.30
2014,08,18,03,06,18.30
2014,08,18,03,07,18.30
2014,08,18,03,08,18.30
2014,08,18,03,09,18.30
2014,08,18,03,10,18.20
2014,08,18,03,11,18.20
2014,08,18,03,12,18.20
2014,08,18,03,13,18.20
2014,08,18,03,14,18.20
2014,08,18,03,15,18.20
2014,08,18,03,16,18.20
2014,08,18,03,17,18.20
2014,08,18,03,18,18.20
2014,08,18,03,19,18.10
2014,08,18,03,20,18.10
2014,08,18,03,21,18.10
2014,08,18,03,22,18.10
2014,08,18,03,23,18.10
2014,08,18,03,24,18.10
2014,08,18,03,25,18.10
2014,08,18,03,26,18.10
2014,08,18,03,27,18.10
2014,08,18,03,28,18.10
2014,08,18,03,29,18.10
2014,08,18,03,30,18.10
2014,08,18,03,31,18.00
2014,08,18,03,32,18.00
2014,08,18,03,33,18.00
2014,08,18,03,34,18.00
2014,08,18,03,35,18.00
2014,08,18,03,36,18.00
2014,08,18,03,37,18.00
2014,08,18,03,38,18.00
2014,08,18,03,39,18.00
2014,08,18,03,40,18.00
2014,08,18,03,41,18.00
2014,08,18,03,42,18.00
2014,08,18,03,43,18.00
2014,08,18,03,44,18.00
2014,08,18,03,45,18.00
2014,08,18,03,46,18.00
2014,08,18,03,47,17.90
2014,08,18,03,48,18.00
2014,08,18,03,49,18.00
2014,08,18,03,50,18.00
2014,08,18,03,51,18.00
2014,08,18,03,52,18.00
2014,08,18,03,53,17.90
2014,08,18,03,54,17.90
2014,08,18,03,55,17.90
2014,08,18,03,56,17.90
2014,08,18,03,57,17.90
2014,08,18,03,58,17.90
2014,08,18,03,59,17.90
2014,08,18,04,00,17.90
2014,08,18,04,01,17.90
2014,08,18,04,02,17.90
2014,08,18,04,03,17.90
2014,08,18,04,04,17.90
2014,08,18,04,05,17.90
2014,08,18,04,06,17.90
2014,08,18,04,07,17.80
2014,08,18,04,08,17.80
2014,08,18,04,09,17.80
2014,08,18,04,10,17.80
2014,08,18,04,11,17.80
2014,08,18,04,12,17.80
2014,08,18,04,13,17.80
2014,08,18,04,14,17.80
2014,08,18,04,15,17.80
2014,08,18,04,16,17.80
2014,08,18,04,17,17.80
2014,08,18,04,18,17.80
2014,08,18,04,19,17.80
2014,08,18,04,20,17.80
2014,08,18,04,21,17.80
2014,08,18,04,22,17.80
2014,08,18,04,23,17.80
2014,08,18,04,24,17.90
2014,08,18,04,25,17.90
2014,08,18,04,26,17.90
2014,08,18,04,27,17.90
2014,08,18,04,28,17.90
2014,08,18,04,29,17.90
2014,08,18,04,30,17.90
2014,08,18,04,31,17.90
2014,08,18,04,32,17.90
2014,08,18,04,33,17.90
2014,08,18,04,34,17.90
2014,08,18,04,35,17.80
2014,08,18,04,36,17.80
2014,08,18,04,37,17.80
2014,08,18,04,38,17.90
2014,08,18,04,39,17.90
2014,08,18,04,40,17.90
2014,08,18,04,41,17.90
2014,08,18,04,42,17.90
2014,08,18,04,43,18.00
2014,08,18,04,44,18.00
2014,08,18,04,45,18.00
2014,08,18,04,46,18.00
2014,08,18,04,47,18.00
2014,08,18,04,48,18.00
2014,08,18,04,49,17.90
2014,08,18,04,50,17.90
2014,08,18,04,51,17.90
2014,08,18,04,52,17.90
2014,08,18,04,53,17.90
2014,08,18,04,54,17.90
2014,08,18,04,55,17.90
2014,08,18,04,56,17.90
2014,08,18,04,57,17.80
2014,08,18,04,58,17.80
2014,08,18,04,59,17.80
2014,08,18,05,00,17.80
2014,08,18,05,01,17.70
2014,08,18,05,02,17.70
2014,08,18,05,03,17.70
2014,08,18,05,04,17.70
2014,08,18,05,05,17.70
2014,08,18,05,06,17.60
2014,08,18,05,07,17.60
2014,08,18,05,08,17.60
2014,08,18,05,09,17.60
2014,08,18,05,10,17.60
2014,08,18,05,11,17.50
2014,08,18,05,12,17.50
2014,08,18,05,13,17.50
2014,08,18,05,14,17.50
2014,08,18,05,15,17.50
2014,08,18,05,16,17.50
2014,08,18,05,17,17.50
2014,08,18,05,18,17.50
2014,08,18,05,19,17.50
2014,08,18,05,20,17.50
2014,08,18,05,21,17.50
2014,08,18,05,22,17.50
2014,08,18,05,23,17.50
2014,08,18,05,24,17.50
2014,08,18,05,25,17.60
2014,08,18,05,26,17.60
2014,08,18,05,27,17.60
2014,08,18,05,28,17.60
2014,08,18,05,29,17.60
2014,08,18,05,30,17.50
2014,08,18,05,31,17.60
2014,08,18,05,32,17.60
2014,08,18,05,33,17.50
2014,08,18,05,34,17.50
2014,08,18,05,35,17.50
2014,08,18,05,36,17.50
2014,08,18,05,37,17.50
2014,08,18,05,38,17.40
2014,08,18,05,39,17.40
2014,08,18,05,40,17.40
2014,08,18,05,41,17.40
2014,08,18,05,42,17.40
2014,08,18,05,43,17.40
2014,08,18,05,44,17.40
2014,08,18,05,45,17.40
2014,08,18,05,46,17.40
2014,08,18,05,47,17.40
2014,08,18,05,48,17.30
2014,08,18,05,49,17.30
2014,08,18,05,50,17.30
2014,08,18,05,51,17.30
2014,08,18,05,52,17.30
2014,08,18,05,53,17.30
2014,08,18,05,54,17.30
2014,08,18,05,55,17.30
2014,08,18,05,56,17.20
2014,08,18,05,57,17.20
2014,08,18,05,58,17.20
2014,08,18,05,59,17.20
2014,08,18,06,00,17.20
2014,08,18,06,01,17.20
2014,08,18,06,02,17.10
2014,08,18,06,03,17.10
2014,08,18,06,04,17.10
2014,08,18,06,05,17.10
2014,08,18,06,06,17.10
2014,08,18,06,07,17.00
2014,08,18,06,08,17.00
2014,08,18,06,09,17.00
2014,08,18,06,10,17.00
2014,08,18,06,11,17.00
2014,08,18,06,12,17.00
2014,08,18,06,13,17.00
2014,08,18,06,14,17.00
2014,08,18,06,15,17.00
2014,08,18,06,16,17.00
2014,08,18,06,17,17.00
2014,08,18,06,18,17.00
2014,08,18,06,19,17.00
2014,08,18,06,20,17.00
2014,08,18,06,21,16.90
2014,08,18,06,22,16.90
2014,08,18,06,23,16.90
2014,08,18,06,24,16.90
2014,08,18,06,25,16.90
2014,08,18,06,26,16.90
2014,08,18,06,27,16.90
2014,08,18,06,28,16.90
2014,08,18,06,29,16.90
2014,08,18,06,30,16.90
2014,08,18,06,31,16.90
2014,08,18,06,32,16.90
2014,08,18,06,33,16.90
2014,08,18,06,34,16.90
2014,08,18,06,35,16.90
2014,08,18,06,36,16.90
2014,08,18,06,37,16.80
2014,08,18,06,38,16.80
2014,08,18,06,39,16.80
2014,08,18,06,40,16.80
2014,08,18,06,41,16.80
2014,08,18,06,42,16.80
2014,08,18,06,43,16.90
2014,08,18,06,44,16.90
2014,08,18,06,45,16.90
2014,08,18,06,46,16.90
2014,08,18,06,47,16.90
2014,08,18,06,48,16.90
2014,08,18,06,49,17.00
2014,08,18,06,50,17.00
2014,08,18,06,51,17.00
2014,08,18,06,52,17.10
2014,08,18,06,53,17.10
2014,08,18,06,54,17.10
2014,08,18,06,55,17.10
2014,08,18,06,56,17.10
2014,08,18,06,57,17.10
2014,08,18,06,58,17.10
2014,08,18,06,59,17.10
2014,08,18,07,00,17.10
2014,08,18,07,01,17.10
2014,08,18,07,02,17.10
2014,08,18,07,03,17.20
2014,08,18,07,04,17.20
2014,08,18,07,05,17.20
2014,08,18,07,06,17.20
2014,08,18,07,07,17.20
2014,08,18,07,08,17.20
2014,08,18,07,09,17.20
2014,08,18,07,10,17.30
2014,08,18,07,11,17.30
2014,08,18,07,12,17.30
2014,08,18,07,13,17.30
2014,08,18,07,14,17.30
2014,08,18,07,15,17.40
2014,08,18,07,16,17.40
2014,08,18,07,17,17.40
2014,08,18,07,18,17.40
2014,08,18,07,19,17.50
2014,08,18,07,20,17.60
2014,08,18,07,21,17.60
2014,08,18,07,22,17.60
2014,08,18,07,23,17.70
2014,08,18,07,24,17.70
2014,08,18,07,25,17.80
2014,08,18,07,26,17.80
2014,08,18,07,27,17.80
2014,08,18,07,28,17.90
2014,08,18,07,29,17.90
2014,08,18,07,30,18.00
2014,08,18,07,31,18.00
2014,08,18,07,32,18.10
2014,08,18,07,33,18.10
2014,08,18,07,34,18.10
2014,08,18,07,35,18.20
2014,08,18,07,36,18.20
2014,08,18,07,37,18.20
2014,08,18,07,38,18.20
2014,08,18,07,39,18.20
2014,08,18,07,40,18.30
2014,08,18,07,41,18.30
2014,08,18,07,42,18.30
2014,08,18,07,43,18.40
2014,08,18,07,44,18.40
2014,08,18,07,45,18.40
2014,08,18,07,46,18.50
2014,08,18,07,47,18.50
2014,08,18,07,48,18.50
2014,08,18,07,49,18.60
2014,08,18,07,50,18.60
2014,08,18,07,51,18.60
2014,08,18,07,52,18.60
2014,08,18,07,53,18.60
2014,08,18,07,54,18.60
2014,08,18,07,55,18.70
2014,08,18,07,56,18.70
2014,08,18,07,57,18.70
2014,08,18,07,58,18.70
2014,08,18,07,59,18.70
2014,08,18,08,00,18.70
2014,08,18,08,01,18.70
2014,08,18,08,02,18.70
2014,08,18,08,03,18.70
2014,08,18,08,04,18.70
2014,08,18,08,05,18.70
2014,08,18,08,06,18.70
2014,08,18,08,07,18.80
2014,08,18,08,08,18.80
2014,08,18,08,09,18.80
2014,08,18,08,10,18.80
2014,08,18,08,11,18.90
2014,08,18,08,12,18.90
2014,08,18,08,13,18.90
2014,08,18,08,14,18.90
2014,08,18,08,15,18.90
2014,08,18,08,16,18.90
2014,08,18,08,17,18.90
2014,08,18,08,18,18.90
2014,08,18,08,19,18.90
2014,08,18,08,20,18.90
2014,08,18,08,21,18.90
2014,08,18,08,22,18.90
2014,08,18,08,23,18.90
2014,08,18,08,24,18.90
2014,08,18,08,25,18.90
2014,08,18,08,26,18.90
2014,08,18,08,27,18.90
2014,08,18,08,28,18.90
2014,08,18,08,29,18.90
2014,08,18,08,30,19.00
2014,08,18,08,31,19.00
2014,08,18,08,32,19.00
2014,08,18,08,33,19.00
2014,08,18,08,34,19.00
2014,08,18,08,35,19.10
2014,08,18,08,36,19.10
2014,08,18,08,37,19.10
2014,08,18,08,38,19.20
2014,08,18,08,39,19.20
2014,08,18,08,40,19.20
2014,08,18,08,41,19.20
2014,08,18,08,42,19.20
2014,08,18,08,43,19.30
2014,08,18,08,44,19.30
2014,08,18,08,45,19.30
2014,08,18,08,46,19.40
2014,08,18,08,47,19.40
2014,08,18,08,48,19.40
2014,08,18,08,49,19.40
2014,08,18,08,50,19.40
2014,08,18,08,51,19.40
2014,08,18,08,52,19.40
2014,08,18,08,53,19.50
2014,08,18,08,54,19.50
2014,08,18,08,55,19.60
2014,08,18,08,56,19.60
2014,08,18,08,57,19.60
2014,08,18,08,58,19.60
2014,08,18,08,59,19.60
2014,08,18,09,00,19.60
2014,08,18,09,01,19.60
2014,08,18,09,02,19.50
2014,08,18,09,03,19.50
2014,08,18,09,04,19.50
2014,08,18,09,05,19.50
2014,08,18,09,06,19.50
2014,08,18,09,07,19.60
2014,08,18,09,08,19.60
2014,08,18,09,09,19.60
2014,08,18,09,10,19.60
2014,08,18,09,11,19.50
2014,08,18,09,12,19.40
2014,08,18,09,13,19.40
2014,08,18,09,14,19.30
2014,08,18,09,15,19.30
2014,08,18,09,16,19.20
2014,08,18,09,17,19.20
2014,08,18,09,18,19.20
2014,08,18,09,19,19.20
2014,08,18,09,20,19.20
2014,08,18,09,21,19.20
2014,08,18,09,22,19.20
2014,08,18,09,23,19.20
2014,08,18,09,24,19.20
2014,08,18,09,25,19.20
2014,08,18,09,26,19.20
2014,08,18,09,27,19.30
2014,08,18,09,28,19.40
2014,08,18,09,29,19.40
2014,08,18,09,30,19.40
2014,08,18,09,31,19.40
2014,08,18,09,32,19.40
2014,08,18,09,33,19.40
2014,08,18,09,34,19.50
2014,08,18,09,35,19.60
2014,08,18,09,36,19.60
2014,08,18,09,37,19.70
2014,08,18,09,38,19.70
2014,08,18,09,39,19.80
2014,08,18,09,40,19.80
2014,08,18,09,41,19.70
2014,08,18,09,42,19.70
2014,08,18,09,43,19.70
2014,08,18,09,44,19.70
2014,08,18,09,45,19.70
2014,08,18,09,46,19.60
2014,08,18,09,47,19.60
2014,08,18,09,48,19.70
2014,08,18,09,49,19.60
2014,08,18,09,50,19.60
2014,08,18,09,51,19.50
2014,08,18,09,52,19.40
2014,08,18,09,53,19.40
2014,08,18,09,54,19.30
2014,08,18,09,55,19.20
2014,08,18,09,56,19.10
2014,08,18,09,57,19.00
2014,08,18,09,58,19.00
2014,08,18,09,59,18.90
2014,08,18,10,00,18.80
2014,08,18,10,01,18.80
2014,08,18,10,02,18.80
2014,08,18,10,03,18.70
2014,08,18,10,04,18.70
2014,08,18,10,05,18.70
2014,08,18,10,06,18.70
2014,08,18,10,07,18.80
2014,08,18,10,08,18.80
2014,08,18,10,09,18.90
2014,08,18,10,10,18.90
2014,08,18,10,11,18.90
2014,08,18,10,12,18.90
2014,08,18,10,13,19.00
2014,08,18,10,14,19.10
2014,08,18,10,15,19.10
2014,08,18,10,16,19.10
2014,08,18,10,17,19.10
2014,08,18,10,18,19.10
2014,08,18,10,19,19.20
2014,08,18,10,20,19.20
2014,08,18,10,21,19.20
2014,08,18,10,22,19.20
2014,08,18,10,23,19.20
2014,08,18,10,24,19.20
2014,08,18,10,25,19.20
2014,08,18,10,26,19.20
2014,08,18,10,27,19.20
2014,08,18,10,28,19.20
2014,08,18,10,29,19.20
2014,08,18,10,30,19.20
2014,08,18,10,31,19.30
2014,08,18,10,32,19.30
2014,08,18,10,33,19.40
2014,08,18,10,34,19.50
2014,08,18,10,35,19.50
2014,08,18,10,36,19.60
2014,08,18,10,37,19.70
2014,08,18,10,38,19.70
2014,08,18,10,39,19.70
2014,08,18,10,40,19.80
2014,08,18,10,41,19.80
2014,08,18,10,42,19.80
2014,08,18,10,43,19.80
2014,08,18,10,44,19.80
2014,08,18,10,45,19.80
2014,08,18,10,46,19.70
2014,08,18,10,47,19.70
2014,08,18,10,48,19.80
2014,08,18,10,49,19.80
2014,08,18,10,50,19.80
2014,08,18,10,51,19.80
2014,08,18,10,52,19.80
2014,08,18,10,53,19.80
2014,08,18,10,54,19.70
2014,08,18,10,55,19.70
2014,08,18,10,56,19.70
2014,08,18,10,57,19.60
2014,08,18,10,58,19.60
2014,08,18,10,59,19.60
2014,08,18,11,00,19.60
2014,08,18,11,01,19.70
2014,08,18,11,02,19.70
2014,08,18,11,03,19.60
2014,08,18,11,04,19.60
2014,08,18,11,05,19.60
2014,08,18,11,06,19.60
2014,08,18,11,07,19.60
2014,08,18,11,08,19.60
2014,08,18,11,09,19.60
2014,08,18,11,10,19.70
2014,08,18,11,11,19.70
2014,08,18,11,12,19.60
2014,08,18,11,13,19.60
2014,08,18,11,14,19.60
2014,08,18,11,15,19.60
2014,08,18,11,16,19.70
2014,08,18,11,17,19.70
2014,08,18,11,18,19.80
2014,08,18,11,19,19.70
2014,08,18,11,20,19.70
2014,08,18,11,21,19.70
2014,08,18,11,22,19.80
2014,08,18,11,23,19.80
2014,08,18,11,24,19.80
2014,08,18,11,25,19.90
2014,08,18,11,26,19.90
2014,08,18,11,27,19.90
2014,08,18,11,28,20.00
2014,08,18,11,29,20.00
2014,08,18,11,30,20.10
2014,08,18,11,31,20.10
2014,08,18,11,32,20.20
2014,08,18,11,33,20.20
2014,08,18,11,34,20.30
2014,08,18,11,35,20.30
2014,08,18,11,36,20.30
2014,08,18,11,37,20.40
2014,08,18,11,38,20.40
2014,08,18,11,39,20.50
2014,08,18,11,40,20.60
2014,08,18,11,41,20.70
2014,08,18,11,42,20.80
2014,08,18,11,43,20.80
2014,08,18,11,44,20.90
2014,08,18,11,45,21.00
2014,08,18,11,46,21.00
2014,08,18,11,47,21.10
2014,08,18,11,48,21.10
2014,08,18,11,49,21.10
2014,08,18,11,50,21.20
2014,08,18,11,51,21.20
2014,08,18,11,52,21.30
2014,08,18,11,53,21.30
2014,08,18,11,54,21.30
2014,08,18,11,55,21.30
2014,08,18,11,56,21.40
2014,08,18,11,57,21.50
2014,08,18,11,58,21.60
2014,08,18,11,59,21.70
2014,08,18,12,00,21.80
2014,08,18,12,01,21.90
2014,08,18,12,02,22.00
2014,08,18,12,03,22.10
2014,08,18,12,04,22.10
2014,08,18,12,05,22.10
2014,08,18,12,06,22.10
2014,08,18,12,07,22.10
2014,08,18,12,08,22.20
2014,08,18,12,09,22.30
2014,08,18,12,10,22.40
2014,08,18,12,11,22.40
2014,08,18,12,12,22.50
2014,08,18,12,13,22.60
2014,08,18,12,14,22.70
2014,08,18,12,15,22.80
2014,08,18,12,16,22.80
2014,08,18,12,17,22.90
2014,08,18,12,18,22.90
2014,08,18,12,19,22.90
2014,08,18,12,20,22.80
2014,08,18,12,21,22.70
2014,08,18,12,22,22.60
2014,08,18,12,23,22.50
2014,08,18,12,24,22.30
2014,08,18,12,25,22.00
2014,08,18,12,26,21.90
2014,08,18,12,27,21.90
2014,08,18,12,28,21.80
2014,08,18,12,29,21.80
2014,08,18,12,30,21.80
2014,08,18,12,31,21.70
2014,08,18,12,32,21.70
2014,08,18,12,33,21.60
2014,08,18,12,34,21.50
2014,08,18,12,35,21.30
2014,08,18,12,36,21.20
2014,08,18,12,37,21.10
2014,08,18,12,38,21.00
2014,08,18,12,39,20.90
2014,08,18,12,40,20.80
2014,08,18,12,41,20.70
2014,08,18,12,42,20.60
2014,08,18,12,43,20.60
2014,08,18,12,44,20.50
2014,08,18,12,45,20.40
2014,08,18,12,46,20.40
2014,08,18,12,47,20.50
2014,08,18,12,48,20.50
2014,08,18,12,49,20.60
2014,08,18,12,50,20.60
2014,08,18,12,51,20.70
2014,08,18,12,52,20.70
2014,08,18,12,53,20.70
2014,08,18,12,54,20.70
2014,08,18,12,55,20.70
2014,08,18,12,56,20.70
2014,08,18,12,57,20.70
2014,08,18,12,58,20.70
2014,08,18,12,59,20.70
2014,08,18,13,00,20.70
2014,08,18,13,01,20.70
2014,08,18,13,02,20.80
2014,08,18,13,03,20.80
2014,08,18,13,04,20.90
2014,08,18,13,05,20.80
2014,08,18,13,06,20.80
2014,08,18,13,07,20.80
2014,08,18,13,08,20.80
2014,08,18,13,09,20.80
2014,08,18,13,10,20.90
2014,08,18,13,11,20.90
2014,08,18,13,12,20.90
2014,08,18,13,13,20.90
2014,08,18,13,14,21.00
2014,08,18,13,15,21.00
2014,08,18,13,16,21.10
2014,08,18,13,17,21.20
2014,08,18,13,18,21.30
2014,08,18,13,19,21.30
2014,08,18,13,20,21.30
2014,08,18,13,21,21.30
2014,08,18,13,22,21.30
2014,08,18,13,23,21.40
2014,08,18,13,24,21.40
2014,08,18,13,25,21.40
2014,08,18,13,26,21.40
2014,08,18,13,27,21.40
2014,08,18,13,28,21.50
2014,08,18,13,29,21.60
2014,08,18,13,30,21.70
2014,08,18,13,31,21.80
2014,08,18,13,32,21.80
2014,08,18,13,33,21.80
2014,08,18,13,34,21.90
2014,08,18,13,35,22.00
2014,08,18,13,36,22.00
2014,08,18,13,37,22.10
2014,08,18,13,38,22.20
2014,08,18,13,39,22.20
2014,08,18,13,40,22.20
2014,08,18,13,41,22.10
2014,08,18,13,42,22.10
2014,08,18,13,43,22.10
2014,08,18,13,44,22.10
2014,08,18,13,45,22.10
2014,08,18,13,46,22.10
2014,08,18,13,47,22.10
2014,08,18,13,48,22.10
2014,08,18,13,49,22.10
2014,08,18,13,50,22.20
2014,08,18,13,51,22.20
2014,08,18,13,52,22.20
2014,08,18,13,53,22.30
2014,08,18,13,54,22.30
2014,08,18,13,55,22.40
2014,08,18,13,56,22.60
2014,08,18,13,57,22.70
2014,08,18,13,58,22.90
2014,08,18,13,59,22.90
2014,08,18,14,00,22.80
2014,08,18,14,01,22.80
2014,08,18,14,02,22.80
2014,08,18,14,03,22.70
2014,08,18,14,04,22.60
2014,08,18,14,05,22.50
2014,08,18,14,06,22.50
2014,08,18,14,07,22.30
2014,08,18,14,08,22.30
2014,08,18,14,09,22.20
2014,08,18,14,10,22.10
2014,08,18,14,11,22.00
2014,08,18,14,12,22.00
2014,08,18,14,13,21.90
2014,08,18,14,14,21.90
2014,08,18,14,15,21.90
2014,08,18,14,16,21.80
2014,08,18,14,17,21.80
2014,08,18,14,18,21.80
2014,08,18,14,19,21.80
2014,08,18,14,20,21.80
2014,08,18,14,21,21.80
2014,08,18,14,22,21.90
2014,08,18,14,23,22.00
2014,08,18,14,24,22.10
2014,08,18,14,25,22.30
2014,08,18,14,26,22.40
2014,08,18,14,27,22.50
2014,08,18,14,28,22.60
2014,08,18,14,29,22.80
2014,08,18,14,30,22.80
2014,08,18,14,31,22.90
2014,08,18,14,32,23.00
2014,08,18,14,33,23.10
2014,08,18,14,34,23.20
2014,08,18,14,35,23.30
2014,08,18,14,36,23.30
2014,08,18,14,37,23.40
2014,08,18,14,38,23.40
2014,08,18,14,39,23.50
2014,08,18,14,40,23.60
2014,08,18,14,41,23.70
2014,08,18,14,42,23.80
2014,08,18,14,43,23.90
2014,08,18,14,44,23.90
2014,08,18,14,45,23.90
2014,08,18,14,46,24.00
2014,08,18,14,47,24.00
2014,08,18,14,48,24.00
2014,08,18,14,49,24.00
2014,08,18,14,50,24.00
2014,08,18,14,51,24.00
2014,08,18,14,52,24.00
2014,08,18,14,53,24.00
2014,08,18,14,54,24.10
2014,08,18,14,55,24.10
2014,08,18,14,56,24.00
2014,08,18,14,57,23.80
2014,08,18,14,58,23.70
2014,08,18,14,59,23.60
2014,08,18,15,00,23.50
2014,08,18,15,01,23.40
2014,08,18,15,02,23.40
2014,08,18,15,03,23.40
2014,08,18,15,04,23.40
2014,08,18,15,05,23.40
2014,08,18,15,06,23.40
2014,08,18,15,07,23.40
2014,08,18,15,08,23.40
2014,08,18,15,09,23.30
2014,08,18,15,10,23.30
2014,08,18,15,11,23.30
2014,08,18,15,12,23.30
2014,08,18,15,13,23.30
2014,08,18,15,14,23.30
2014,08,18,15,15,23.30
2014,08,18,15,16,23.30
2014,08,18,15,17,23.30
2014,08,18,15,18,23.40
2014,08,18,15,19,23.40
2014,08,18,15,20,23.40
2014,08,18,15,21,23.40
2014,08,18,15,22,23.40
2014,08,18,15,23,23.40
2014,08,18,15,24,23.30
2014,08,18,15,25,23.20
2014,08,18,15,26,23.20
2014,08,18,15,27,23.20
2014,08,18,15,28,23.10
2014,08,18,15,29,23.10
2014,08,18,15,30,23.20
2014,08,18,15,31,23.20
2014,08,18,15,32,23.20
2014,08,18,15,33,23.20
2014,08,18,15,34,23.20
2014,08,18,15,35,23.20
2014,08,18,15,36,23.20
2014,08,18,15,37,23.30
2014,08,18,15,38,23.40
2014,08,18,15,39,23.40
2014,08,18,15,40,23.40
2014,08,18,15,41,23.40
2014,08,18,15,42,23.30
2014,08,18,15,43,23.30
2014,08,18,15,44,23.20
2014,08,18,15,45,23.10
2014,08,18,15,46,23.10
2014,08,18,15,47,23.10
2014,08,18,15,48,23.10
2014,08,18,15,49,23.20
2014,08,18,15,50,23.20
2014,08,18,15,51,23.30
2014,08,18,15,52,23.30
2014,08,18,15,53,23.40
2014,08,18,15,54,23.40
2014,08,18,15,55,23.40
2014,08,18,15,56,23.50
2014,08,18,15,57,23.50
2014,08,18,15,58,23.40
2014,08,18,15,59,23.40
2014,08,18,16,00,23.40
2014,08,18,16,01,23.40
2014,08,18,16,02,23.40
2014,08,18,16,03,23.50
2014,08,18,16,04,23.50
2014,08,18,16,05,23.40
2014,08,18,16,06,23.40
2014,08,18,16,07,23.40
2014,08,18,16,08,23.50
2014,08,18,16,09,23.50
2014,08,18,16,10,23.50
2014,08,18,16,11,23.50
2014,08,18,16,12,23.50
2014,08,18,16,13,23.60
2014,08,18,16,14,23.50
2014,08,18,16,15,23.50
2014,08,18,16,16,23.50
2014,08,18,16,17,23.60
2014,08,18,16,18,23.60
2014,08,18,16,19,23.60
2014,08,18,16,20,23.70
2014,08,18,16,21,23.70
2014,08,18,16,22,23.80
2014,08,18,16,23,23.90
2014,08,18,16,24,24.00
2014,08,18,16,25,24.00
2014,08,18,16,26,24.10
2014,08,18,16,27,24.10
2014,08,18,16,28,24.10
2014,08,18,16,29,24.10
2014,08,18,16,30,24.10
2014,08,18,16,31,24.10
2014,08,18,16,32,24.10
2014,08,18,16,33,24.10
2014,08,18,16,34,24.10
2014,08,18,16,35,24.10
2014,08,18,16,36,24.10
2014,08,18,16,37,24.10
2014,08,18,16,38,24.10
2014,08,18,16,39,24.00
2014,08,18,16,40,24.00
2014,08,18,16,41,24.10
2014,08,18,16,42,24.10
2014,08,18,16,43,24.10
2014,08,18,16,44,24.10
2014,08,18,16,45,24.10
2014,08,18,16,46,24.10
2014,08,18,16,47,24.10
2014,08,18,16,48,24.20
2014,08,18,16,49,24.20
2014,08,18,16,50,24.30
2014,08,18,16,51,24.30
2014,08,18,16,52,24.40
2014,08,18,16,53,24.40
2014,08,18,16,54,24.40
2014,08,18,16,55,24.50
2014,08,18,16,56,24.40
2014,08,18,16,57,24.40
2014,08,18,16,58,24.40
2014,08,18,16,59,24.40
2014,08,18,17,00,24.40
2014,08,18,17,01,24.40
2014,08,18,17,02,24.40
2014,08,18,17,03,24.40
2014,08,18,17,04,24.30
2014,08,18,17,05,24.30
2014,08,18,17,06,24.30
2014,08,18,17,07,24.20
2014,08,18,17,08,24.20
2014,08,18,17,09,24.20
2014,08,18,17,10,24.10
2014,08,18,17,11,24.10
2014,08,18,17,12,24.10
2014,08,18,17,13,24.10
2014,08,18,17,14,24.10
2014,08,18,17,15,24.00
2014,08,18,17,16,24.00
2014,08,18,17,17,24.00
2014,08,18,17,18,23.90
2014,08,18,17,19,23.90
2014,08,18,17,20,23.90
2014,08,18,17,21,23.90